QPF
0.01 0.02 0.02 0.01 0.01 0.01 0.01 0.01 0.01 0.01 0.01 0.01 0.01 0.01 0.01 0.01 0.01 0.00 0.01 0.00 0.00 0.01 0.00 0.00 0.00 0.01 0.01 0.01 0.01 0.01 0.01 0.01 0.02 0.02 0.03 0.02 0.02 0.02
0.01 0.01 0.01 0.01 0.01 0.01 0.01 0.01 0.01 0.00 0.00 0.00 0.00 0.01 0.01 0.01 0.01 0.00 0.01 0.01 0.01 0.00 0.00 0.00 0.00 0.01 0.01 0.01 0.01 0.01 0.01 0.01 0.01 0.01 0.01 0.01 0.01 0.01
0.02 0.01 0.00 0.01 0.01 0.01 0.01 0.01 0.01 0.00 0.00 0.00 0.00 0.01 0.01 0.02 0.01 0.01 0.01 0.01 0.01 0.01 0.00 0.00 0.00 0.00 0.01 0.01 0.01 0.01 0.01 0.00 0.00 0.01 0.01 0.01 0.00 0.00
0.02 0.01 0.01 0.02 0.01 0.02 0.01 0.01 0.00 0.00 0.00 0.00 0.00 0.01 0.02 0.02 0.01 0.02 0.01 0.01 0.01 0.01 0.00 0.00 0.00 0.00 0.00 0.00 0.00 0.00 0.00 0.00 0.00 0.00 0.00 0.01 0.01 0.01
0.02 0.02 0.02 0.01 0.01 0.01 0.01 0.01 0.00 0.00 0.01 0.00 0.00 0.01 0.01 0.01 0.01 0.02 0.01 0.01 0.01 0.01 0.01 0.00 0.00 0.00 0.00 0.00 0.00 0.00 0.00 0.00 0.00 0.01 0.01 0.01 0.01 0.01
0.02 0.02 0.02 0.01 0.01 0.01 0.01 0.01 0.00 0.00 0.00 0.00 0.00 0.01 0.01 0.01 0.01 0.01 0.02 0.03 0.03 0.02 0.01 0.00 0.00 0.00 0.00 0.00 0.00 0.00 0.00 0.00 0.00 0.01 0.01 0.02 0.02 0.01
0.01 0.01 0.02 0.01 0.01 0.02 0.01 0.01 0.00 0.00 0.00 0.00 0.01 0.01 0.01 0.01 0.01 0.01 0.03 0.04 0.04 0.04 0.01 0.00 0.00 0.00 0.00 0.00 0.00 0.00 0.00 0.00 0.00 0.00 0.01 0.01 0.02 0.02
0.01 0.01 0.01 0.01 0.00 0.01 0.02 0.01 0.00 0.00 0.00 0.00 0.00 0.00 0.00 0.01 0.01 0.01 0.01 0.01 0.02 0.02 0.02 0.02 0.01 0.00 0.00 0.00 0.00 0.00 0.00 0.00 0.00 0.00 0.00 0.01 0.01 0.02
0.01 0.01 0.01 0.01 0.01 0.00 0.01 0.01 0.00 0.00 0.00 0.00 0.00 0.00 0.00 0.00 0.00 0.00 0.00 0.00 0.01 0.02 0.01 0.01 0.00 0.00 0.00 0.00 0.00 0.00 0.00 0.00 0.00 0.00 0.00 0.00 0.00 0.01
0.00 0.01 0.00 0.01 0.01 0.00 0.00 0.00 0.00 0.00 0.00 0.00 0.00 0.00 0.01 0.01 0.01 0.00 0.00 0.00 0.01 0.02 0.02 0.01 0.00 0.00 0.00 0.00 0.00 0.00 0.00 0.00 0.00 0.00 0.00 0.00 0.00 0.00
0.00 0.00 0.00 0.00 0.00 0.00 0.00 0.00 0.00 0.00 0.00 0.00 0.00 0.01 0.01 0.01 0.01 0.01 0.01 0.01 0.01 0.01 0.01 0.01 0.00 0.00 0.00 0.00 0.00 0.00 0.00 0.00 0.00 0.00 0.00 0.00 0.00 0.00
0.00 0.00 0.00 0.00 0.00 0.00 0.00 0.00 0.00 0.00 0.00 0.00 0.00 0.00 0.00 0.01 0.01 0.01 0.01 0.01 0.01 0.01 0.01 0.01 0.00 0.00 0.00 0.00 0.00 0.00 0.00 0.00 0.00 0.00 0.00 0.00 0.00 0.00
0.00 0.00 0.00 0.00 0.00 0.00 0.00 0.00 0.00 0.00 0.00 0.00 0.00 0.00 0.00 0.00 0.00 0.00 0.00 0.00 0.00 0.00 0.00 0.00 0.00 0.00 0.00 0.00 0.00 0.00 0.00 0.00 0.00 0.00 0.00 0.00 0.00 0.00
0.00 0.00 0.00 0.00 0.00 0.00 0.00 0.00 0.00 0.00 0.00 0.00 0.00 0.00 0.00 0.00 0.00 0.00 0.00 0.00 0.00 0.00 0.00 0.00 0.00 0.00 0.00 0.00 0.00 0.00 0.00 0.00 0.00 0.00 0.00 0.00 0.00 0.00
0.00 0.00 0.00 0.00 0.00 0.00 0.00 0.00 0.00 0.00 0.00 0.00 0.00 0.00 0.00 0.00 0.00 0.00 0.00 0.00 0.00 0.00 0.00 0.00 0.00 0.00 0.00 0.00 0.00 0.00 0.00 0.00 0.00 0.00 0.00 0.00 0.00 0.00
0.00 0.00 0.00 0.00 0.00 0.00 0.00 0.00 0.00 0.00 0.00 0.00 0.00 0.00 0.00 0.00 0.00 0.00 0.00 0.00 0.00 0.00 0.00 0.00 0.00 0.00 0.00 0.00 0.00 0.00 0.00 0.00 0.00 0.00 0.00 0.00 0.00 0.00
0.00 0.00 0.00 0.00 0.00 0.00 0.00 0.00 0.00 0.00 0.00 0.00 0.00 0.00 0.00 0.00 0.00 0.00 0.00 0.00 0.00 0.00 0.00 0.00 0.00 0.00 0.00 0.00 0.00 0.00 0.00 0.00 0.00 0.00 0.00 0.00 0.00 0.00
0.01 0.00 0.00 0.00 0.00 0.00 0.00 0.00 0.00 0.00 0.00 0.00 0.00 0.00 0.00 0.00 0.00 0.00 0.00 0.00 0.00 0.00 0.00 0.00 0.00 0.00 0.00 0.00 0.00 0.00 0.00 0.00 0.00 0.00 0.00 0.00 0.00 0.00
0.01 0.00 0.00 0.00 0.00 0.00 0.00 0.00 0.00 0.00 0.00 0.00 0.00 0.00 0.00 0.00 0.00 0.00 0.00 0.00 0.00 0.00 0.00 0.00 0.00 0.00 0.00 0.00 0.00 0.00 0.00 0.00 0.00 0.00 0.00 0.00 0.00 0.00
0.00 0.00 0.00 0.00 0.00 0.00 0.00 0.00 0.00 0.00 0.00 0.00 0.00 0.00 0.00 0.00 0.00 0.00 0.00 0.00 0.00 0.01 0.00 0.00 0.00 0.00 0.00 0.00 0.00 0.00 0.00 0.00 0.00 0.00 0.00 0.00 0.00 0.00
0.00 0.00 0.00 0.00 0.00 0.00 0.00 0.00 0.00 0.00 0.00 0.00 0.00 0.00 0.00 0.00 0.00 0.00 0.00 0.01 0.01 0.01 0.01 0.01 0.01 0.01 0.01 0.01 0.00 0.00 0.00 0.00 0.00 0.00 0.00 0.00 0.00 0.00
0.01 0.01 0.01 0.00 0.00 0.00 0.00 0.00 0.00 0.00 0.00 0.00 0.00 0.00 0.00 0.00 0.01 0.01 0.01 0.01 0.01 0.01 0.01 0.01 0.01 0.01 0.00 0.00 0.00 0.00 0.00 0.00 0.00 0.00 0.00 0.00 0.00 0.01
0.01 0.01 0.01 0.01 0.01 0.01 0.00 0.00 0.00 0.00 0.00 0.00 0.00 0.00 0.01 0.01 0.01 0.01 0.01 0.01 0.01 0.01 0.01 0.01 0.00 0.00 0.00 0.01 0.01 0.01 0.01 0.00 0.00 0.00 0.00 0.00 0.00 0.01
MSLP
1018.60 1018.72 1018.91 1019.14 1019.40 1019.64 1019.83 1019.97 1020.03 1020.02 1019.97 1019.89 1019.79 1019.69 1019.59 1019.48 1019.35 1019.18 1018.97 1018.72 1018.43 1018.11 1017.78 1017.45 1017.12 1016.79 1016.45 1016.08 1015.67 1015.21 1014.71 1014.17 1013.60 1013.05 1012.54 1012.09 1011.71 1011.41
1018.92 1018.96 1019.07 1019.22 1019.41 1019.60 1019.76 1019.89 1019.97 1020.00 1019.99 1019.95 1019.90 1019.83 1019.75 1019.65 1019.53 1019.38 1019.19 1018.97 1018.72 1018.45 1018.18 1017.91 1017.65 1017.38 1017.09 1016.78 1016.43 1016.03 1015.58 1015.10 1014.60 1014.12 1013.67 1013.28 1012.95 1012.69
1019.35 1019.33 1019.36 1019.45 1019.56 1019.70 1019.83 1019.95 1020.05 1020.11 1020.14 1020.15 1020.13 1020.09 1020.03 1019.94 1019.82 1019.66 1019.47 1019.26 1019.03 1018.80 1018.58 1018.36 1018.15 1017.94 1017.71 1017.45 1017.14 1016.78 1016.38 1015.94 1015.49 1015.05 1014.65 1014.30 1014.01 1013.79
1019.86 1019.80 1019.78 1019.80 1019.86 1019.95 1020.06 1020.18 1020.28 1020.37 1020.45 1020.49 1020.50 1020.48 1020.43 1020.33 1020.19 1020.02 1019.82 1019.61 1019.39 1019.18 1018.98 1018.81 1018.65 1018.49 1018.30 1018.09 1017.82 1017.51 1017.14 1016.73 1016.32 1015.91 1015.54 1015.22 1014.96 1014.76
1020.40 1020.31 1020.26 1020.24 1020.26 1020.33 1020.42 1020.53 1020.65 1020.76 1020.86 1020.93 1020.97 1020.96 1020.90 1020.80 1020.64 1020.45 1020.22 1020.00 1019.77 1019.57 1019.40 1019.26 1019.14 1019.02 1018.89 1018.71 1018.49 1018.21 1017.87 1017.49 1017.10 1016.72 1016.37 1016.07 1015.84 1015.66
1020.89 1020.80 1020.74 1020.70 1020.71 1020.75 1020.83 1020.94 1021.06 1021.19 1021.31 1021.40 1021.45 1021.45 1021.39 1021.27 1021.10 1020.89 1020.65 1020.40 1020.17 1019.98 1019.82 1019.71 1019.62 1019.54 1019.45 1019.32 1019.13 1018.89 1018.58 1018.24 1017.87 1017.51 1017.18 1016.91 1016.69 1016.52
1021.27 1021.21 1021.16 1021.13 1021.13 1021.16 1021.23 1021.33 1021.45 1021.59 1021.71 1021.81 1021.87 1021.88 1021.82 1021.70 1021.52 1021.29 1021.05 1020.79 1020.57 1020.38 1020.24 1020.15 1020.09 1020.05 1019.99 1019.90 1019.76 1019.55 1019.29 1018.97 1018.64 1018.31 1018.00 1017.74 1017.54 1017.39
1021.53 1021.50 1021.47 1021.45 1021.46 1021.49 1021.55 1021.64 1021.76 1021.88 1022.01 1022.11 1022.18 1022.20 1022.15 1022.03 1021.86 1021.65 1021.40 1021.16 1020.94 1020.77 1020.65 1020.58 1020.55 1020.54 1020.52 1020.47 1020.37 1020.21 1019.99 1019.72 1019.42 1019.13 1018.85 1018.61 1018.43 1018.30
1021.64 1021.65 1021.66 1021.66 1021.68 1021.71 1021.77 1021.85 1021.95 1022.06 1022.18 1022.28 1022.36 1022.39 1022.36 1022.28 1022.13 1021.94 1021.73 1021.51 1021.31 1021.16 1021.06 1021.02 1021.01 1021.04 1021.06 1021.05 1021.00 1020.89 1020.72 1020.50 1020.25 1019.99 1019.75 1019.54 1019.38 1019.27
1021.64 1021.69 1021.73 1021.77 1021.80 1021.84 1021.89 1021.95 1022.03 1022.13 1022.24 1022.35 1022.44 1022.49 1022.50 1022.45 1022.36 1022.21 1022.04 1021.87 1021.71 1021.59 1021.52 1021.50 1021.52 1021.58 1021.64 1021.68 1021.67 1021.62 1021.51 1021.34 1021.14 1020.93 1020.73 1020.55 1020.41 1020.31
1021.55 1021.65 1021.73 1021.80 1021.86 1021.91 1021.95 1022.00 1022.07 1022.15 1022.25 1022.37 1022.48 1022.56 1022.62 1022.63 1022.59 1022.51 1022.40 1022.28 1022.16 1022.08 1022.04 1022.05 1022.11 1022.19 1022.29 1022.38 1022.43 1022.44 1022.38 1022.28 1022.13 1021.97 1021.80 1021.65 1021.52 1021.42
1021.43 1021.57 1021.71 1021.81 1021.90 1021.95 1022.00 1022.04 1022.10 1022.18 1022.28 1022.41 1022.54 1022.67 1022.78 1022.86 1022.89 1022.88 1022.84 1022.77 1022.71 1022.67 1022.66 1022.70 1022.79 1022.91 1023.05 1023.18 1023.29 1023.35 1023.36 1023.31 1023.22 1023.09 1022.95 1022.82 1022.69 1022.59
1021.31 1021.50 1021.68 1021.83 1021.94 1022.01 1022.07 1022.11 1022.17 1022.25 1022.36 1022.51 1022.68 1022.86 1023.03 1023.17 1023.28 1023.34 1023.36 1023.36 1023.35 1023.35 1023.38 1023.45 1023.57 1023.72 1023.90 1024.08 1024.24 1024.36 1024.42 1024.43 1024.38 1024.29 1024.16 1024.03 1023.89 1023.76
1021.19 1021.43 1021.65 1021.84 1021.98 1022.08 1022.15 1022.21 1022.27 1022.37 1022.50 1022.68 1022.89 1023.12 1023.36 1023.57 1023.75 1023.88 1023.97 1024.03 1024.06 1024.10 1024.17 1024.27 1024.42 1024.61 1024.82 1025.04 1025.25 1025.41 1025.53 1025.57 1025.56 1025.49 1025.37 1025.22 1025.05 1024.88
1021.07 1021.36 1021.62 1021.84 1022.02 1022.14 1022.23 1022.31 1022.40 1022.52 1022.69 1022.90 1023.17 1023.45 1023.75 1024.03 1024.28 1024.48 1024.63 1024.73 1024.82 1024.90 1025.00 1025.13 1025.30 1025.52 1025.76 1026.01 1026.26 1026.46 1026.61 1026.69 1026.69 1026.62 1026.49 1026.31 1026.10 1025.88
1020.94 1021.25 1021.54 1021.80 1022.00 1022.15 1022.27 1022.38 1022.51 1022.67 1022.88 1023.15 1023.46 1023.81 1024.17 1024.52 1024.82 1025.08 1025.29 1025.45 1025.57 1025.69 1025.82 1025.98 1026.17 1026.41 1026.67 1026.95 1027.21 1027.44 1027.60 1027.69 1027.69 1027.61 1027.46 1027.24 1026.99 1026.70
1020.76 1021.09 1021.40 1021.67 1021.90 1022.08 1022.24 1022.39 1022.56 1022.78 1023.05 1023.38 1023.76 1024.17 1024.59 1024.99 1025.36 1025.67 1025.93 1026.13 1026.29 1026.44 1026.60 1026.78 1026.99 1027.24 1027.51 1027.80 1028.07 1028.29 1028.45 1028.53 1028.52 1028.42 1028.23 1027.97 1027.66 1027.31
1020.55 1020.88 1021.19 1021.47 1021.71 1021.92 1022.12 1022.33 1022.57 1022.85 1023.19 1023.58 1024.03 1024.51 1024.99 1025.45 1025.86 1026.22 1026.52 1026.76 1026.96 1027.14 1027.32 1027.51 1027.73 1027.99 1028.26 1028.53 1028.79 1029.00 1029.14 1029.19 1029.15 1029.01 1028.78 1028.48 1028.12 1027.72
1020.31 1020.62 1020.92 1021.21 1021.47 1021.72 1021.97 1022.23 1022.54 1022.90 1023.32 1023.79 1024.30 1024.84 1025.38 1025.89 1026.35 1026.75 1027.08 1027.36 1027.58 1027.79 1027.98 1028.19 1028.41 1028.66 1028.92 1029.17 1029.40 1029.57 1029.68 1029.69 1029.61 1029.42 1029.15 1028.81 1028.41 1027.97
1020.08 1020.37 1020.66 1020.95 1021.23 1021.51 1021.82 1022.16 1022.54 1022.98 1023.48 1024.02 1024.61 1025.21 1025.79 1026.34 1026.84 1027.27 1027.63 1027.93 1028.18 1028.40 1028.61 1028.82 1029.04 1029.27 1029.50 1029.73 1029.92 1030.05 1030.10 1030.07 1029.94 1029.72 1029.41 1029.03 1028.59 1028.13
1019.91 1020.18 1020.46 1020.75 1021.05 1021.38 1021.74 1022.15 1022.61 1023.13 1023.71 1024.33 1024.97 1025.61 1026.24 1026.82 1027.34 1027.79 1028.17 1028.49 1028.75 1028.98 1029.20 1029.41 1029.63 1029.84 1030.05 1030.24 1030.38 1030.46 1030.47 1030.39 1030.22 1029.95 1029.61 1029.21 1028.76 1028.28
1019.84 1020.09 1020.36 1020.66 1020.99 1021.36 1021.78 1022.26 1022.80 1023.39 1024.03 1024.70 1025.39 1026.07 1026.72 1027.31 1027.84 1028.30 1028.69 1029.02 1029.30 1029.54 1029.77 1029.98 1030.18 1030.38 1030.56 1030.71 1030.82 1030.86 1030.82 1030.70 1030.49 1030.20 1029.84 1029.42 1028.97 1028.48
1019.89 1020.13 1020.41 1020.72 1021.07 1021.49 1021.96 1022.49 1023.09 1023.73 1024.42 1025.13 1025.85 1026.54 1027.20 1027.80 1028.33 1028.79 1029.18 1029.52 1029.80 1030.05 1030.28 1030.49 1030.70 1030.88 1031.05 1031.17 1031.24 1031.25 1031.18 1031.03 1030.80 1030.49 1030.12 1029.70 1029.24 1028.76
Thickness
5693 5692 5691 5690 5689 5687 5685 5682 5675 5667 5665 5667 5668 5670 5670 5670 5670 5669 5669 5668 5668 5668 5667 5667 5667 5666 5666 5666 5666 5666 5666 5666 5666 5666 5667 5668 5669 5670
5691 5690 5689 5687 5686 5685 5684 5682 5679 5672 5665 5665 5666 5668 5668 5668 5667 5667 5666 5666 5665 5664 5664 5663 5662 5662 5661 5660 5660 5660 5659 5659 5660 5660 5660 5661 5662 5663
5689 5687 5686 5685 5683 5682 5681 5679 5676 5672 5666 5664 5664 5665 5665 5664 5664 5664 5663 5662 5662 5661 5660 5659 5658 5657 5656 5655 5654 5653 5653 5652 5652 5652 5653 5654 5655 5656
5686 5685 5683 5683 5681 5679 5678 5675 5673 5671 5667 5662 5661 5661 5661 5661 5660 5660 5659 5659 5658 5657 5656 5654 5653 5652 5651 5650 5649 5647 5646 5645 5645 5644 5645 5646 5647 5647
5684 5682 5680 5679 5677 5676 5674 5672 5670 5668 5665 5661 5658 5657 5657 5657 5656 5655 5655 5654 5654 5652 5651 5650 5648 5647 5646 5644 5643 5641 5640 5639 5638 5637 5637 5637 5637 5638
5681 5680 5679 5677 5675 5673 5671 5669 5667 5664 5661 5658 5654 5652 5651 5651 5650 5648 5647 5647 5647 5647 5645 5644 5642 5641 5640 5638 5636 5635 5633 5632 5631 5630 5629 5629 5628 5628
5678 5677 5676 5676 5674 5673 5670 5666 5664 5660 5656 5652 5649 5647 5645 5644 5643 5642 5641 5641 5641 5640 5638 5638 5637 5635 5633 5631 5629 5628 5626 5625 5624 5622 5621 5620 5619 5618
5674 5673 5673 5672 5671 5670 5668 5665 5662 5658 5653 5649 5645 5642 5641 5640 5639 5638 5636 5634 5632 5634 5631 5630 5630 5628 5626 5624 5622 5621 5619 5617 5616 5614 5613 5611 5610 5609
5670 5669 5669 5668 5666 5665 5662 5660 5658 5656 5653 5649 5644 5641 5639 5638 5636 5633 5630 5628 5626 5626 5625 5622 5622 5620 5619 5617 5615 5613 5611 5609 5607 5606 5604 5602 5601 5599
5667 5665 5664 5663 5662 5660 5657 5654 5651 5649 5648 5646 5643 5640 5638 5636 5633 5631 5628 5624 5622 5620 5619 5614 5613 5611 5611 5609 5607 5604 5602 5600 5598 5596 5595 5593 5591 5589
5662 5661 5660 5658 5658 5656 5652 5648 5645 5643 5642 5640 5638 5636 5634 5632 5629 5625 5621 5617 5613 5612 5610 5606 5604 5602 5602 5600 5598 5596 5593 5591 5589 5587 5585 5582 5580 5578
5656 5655 5655 5654 5652 5650 5647 5643 5639 5637 5635 5634 5631 5630 5627 5625 5622 5619 5615 5610 5605 5602 5602 5598 5595 5593 5591 5590 5588 5586 5583 5581 5578 5576 5574 5571 5569 5566
5650 5649 5648 5648 5647 5645 5642 5639 5636 5633 5630 5627 5624 5622 5620 5617 5615 5612 5609 5605 5600 5595 5595 5592 5587 5583 5579 5578 5577 5575 5573 5570 5568 5565 5562 5559 5557 5554
5646 5644 5643 5642 5641 5639 5636 5634 5631 5628 5623 5620 5616 5613 5611 5608 5606 5604 5601 5598 5595 5590 5587 5584 5579 5574 5570 5566 5564 5563 5561 5559 5556 5553 5550 5547 5544 5541
5643 5641 5639 5636 5634 5632 5630 5627 5624 5620 5616 5612 5608 5605 5603 5601 5598 5595 5592 5589 5586 5582 5579 5575 5571 5567 5561 5556 5553 5551 5548 5546 5543 5540 5537 5533 5530 5527
5637 5634 5632 5629 5627 5624 5622 5619 5616 5613 5609 5604 5601 5597 5595 5592 5589 5586 5582 5578 5574 5571 5568 5565 5562 5558 5552 5548 5543 5539 5535 5531 5529 5526 5523 5519 5516 5513
5631 5627 5623 5620 5618 5615 5612 5610 5607 5604 5601 5597 5593 5590 5586 5583 5580 5577 5573 5569 5564 5560 5557 5554 5551 5547 5543 5538 5532 5527 5522 5518 5515 5512 5509 5505 5502 5498
5626 5621 5617 5615 5612 5609 5606 5602 5599 5596 5593 5590 5586 5582 5579 5575 5571 5568 5563 5559 5554 5550 5546 5543 5539 5535 5530 5525 5521 5515 5510 5505 5502 5498 5494 5490 5488 5485
5620 5617 5613 5609 5606 5603 5599 5596 5592 5589 5586 5582 5579 5575 5571 5567 5562 5558 5554 5549 5545 5540 5536 5531 5526 5521 5516 5512 5508 5503 5497 5493 5489 5485 5480 5476 5473 5472
5614 5611 5607 5604 5600 5596 5593 5589 5585 5581 5577 5574 5570 5566 5562 5558 5553 5549 5544 5539 5535 5530 5524 5519 5514 5509 5503 5499 5494 5489 5485 5480 5475 5471 5468 5464 5461 5459
5608 5605 5602 5598 5594 5590 5586 5582 5578 5574 5569 5566 5562 5558 5553 5549 5544 5539 5534 5530 5524 5519 5513 5508 5503 5498 5493 5486 5480 5475 5471 5467 5462 5457 5454 5450 5447 5444
5603 5599 5595 5591 5587 5583 5579 5575 5570 5566 5562 5557 5553 5549 5545 5540 5535 5530 5525 5519 5514 5508 5503 5497 5492 5486 5479 5473 5467 5462 5458 5454 5450 5445 5440 5436 5431 5428
5597 5592 5588 5584 5580 5576 5572 5568 5563 5559 5554 5550 5545 5541 5536 5531 5526 5521 5515 5509 5504 5498 5491 5485 5479 5472 5466 5460 5453 5448 5445 5440 5436 5432 5428 5423 5418 5415